{"data":{"norad_id":65069,"intl_designator":"2025-165P","name":"STARLINK-34809","alt_names":[],"object_type":"PAYLOAD","status":"ACTIVE","operator":null,"country":"US","launch_date":"2025-07-31","launch_site_code":"AFWTR","launch_vehicle":null,"mission":null,"orbit_class":"UNKNOWN","rcs_meters":null,"size_class":null,"mass_kg":null,"dimensions":null,"purposes":["comms"],"wikipedia_slug":null,"has_3d_model":false,"image_url":null,"decayed_at":null,"tle_current":{"epoch":"2026-09-20T22:00:03.000096Z","epoch_age_seconds":84218,"freshness":"FRESH","line1":"1 65069U 25165P   26263.91670139 -.00029111  00000+0 -90279-3 0  9995","line2":"2 65069  97.2855 335.0695 0001599  91.8375 318.9328 15.33445990  5790","mean_motion":15.3344599,"eccentricity":0.0001599,"inclination_deg":97.2855,"raan_deg":335.0695,"arg_perigee_deg":91.8375,"mean_anomaly_deg":318.9328,"bstar":-0.00090279,"rev_number":579,"period_min":93.906144030544,"perigee_km":464.44592494733,"apogee_km":466.63453292515,"semimajor_km":6843.6772289362,"source":"CELESTRAK","updated_at":"2026-09-21T09:00:35.500722Z"}}}